Location: *
(48.8780°N, 19.2358°E)
Time: 15:14:38
(UTC+00:00)

ATLAS 3B R/B - Pass Details

Date: 18 October 2019
Orbit: 1029 x 1166 km, 63.8° (Epoch: 10 November)

Event Time Altitude Azimuth Distance (km) Brightness Sun altitude
Rises 17:09:22 0° 158° (SSE) 3,826 5.4 -14.0°
Reaches altitude 10° 17:13:24 10° 136° (SE) 2,854 4.5 -14.7°
Enters shadow 17:13:57 11° 131° (SE) 2,761 4.4 -14.8°
